010  
ASHW40 PHFO 290512  
RWRHI  
 
WEATHER ROUNDUP FOR HAWAII  
NATIONAL WEATHER SERVICE HONOLULU HI  
700 PM HST FRI APR 28 2017  
 
THIS IS AN AUTOMATED REPORT THAT HAS NOT BEEN QUALITY CONTROLLED.  
 
NOTE..."FAIR" INDICATES FEW OR NO CLOUDS BELOW 12,000 FEET WITH NO  
SIGNIFICANT WEATHER AND/OR S TO VISIBILITY
.  
 
* - THESE SITES REPORT LIMITED FIELDS  
 
HIZ001>004-290600-  
KAUAI-NIIHAU-  
 
CITY SKY/WX TMP DP RH WIND PRES REMARKS
 
LIHUE APT CLOUDY 72 64 76 N14 29.93S  
PORT ALLEN* N/A 75 N/A N/A SW6 N/A  
POIPU* N/A 72 N/A N/A NE5G12 N/A  
PRINCEVILLE* N/A 72 N/A N/A N6 N/A  
KOKOLE POINT* NOT AVBL  
MOLOAA DAIRY* N/A 70 64 83 NW3G13 N/A  
WAIMEA HTS* NOT AVBL  
PUU OPAE* NOT AVBL  
PUU LUA* NOT AVBL  
MAKAHA RIDGE* NOT AVBL  

 
 
HIZ005>011-290600-  
OAHU-  
 
CITY SKY/WX TMP DP RH WIND PRES REMARKS
 
HONOLULU PTCLDY 76 66 71 N5 29.89S  
KALAELOA PTCLDY 79 65 62 NE8 29.89S  
KANEOHE MCB NOT AVBL  
WHEELER FIELD MOCLDY 72 66 82 NW9 29.90S  
BELLOWS* NOT AVBL  
KAHUKU* NOT AVBL  
WHEELER* NOT AVBL  
WAIANAE HARBOR NOT AVBL  
DILLINGHAM* N/A 77 70 78 S1 N/A  
KAHUKU TRN* N/A 72 68 88 S3G10 N/A  
KAWAILOA* N/A 70 66 88 N5G10 N/A  
KII* N/A 75 68 78 NW9G17 N/A  
MAKUA RANGE* N/A 70 63 78 SW7G17 N/A  
OAHU FOREST NW NOT AVBL  
SCHOFIELD BRK* N/A 77 72 83 MISG N/A  
SCHOFIELD S* NOT AVBL  
WAIANAE VLY* NOT AVBL  
KUAOKALA* NOT AVBL  
HONOULIUULI* NOT AVBL  
MOKUOLOE IS* NOT AVBL  
PALEHUA* NOT AVBL  
WAIAWA PHB* NOT AVBL  

 
 
HIZ012>013-290600-  
MOLOKAI-  
 
CITY SKY/WX TMP DP RH WIND PRES REMARKS
 
MOLOKAI AIRPT PTCLDY 73 69 87 N5 29.91R  
KALAUPAPA NOT AVBL  
MAKAPULAPAI* NOT AVBL  
MOLOKAI 1* NOT AVBL  
PUU ALII* NOT AVBL  

 
 
HIZ016-290600-  
KAHOOLAWE-  
 
CITY SKY/WX TMP DP RH WIND PRES REMARKS
 
KAHOOLAWE* NOT AVBL  
HAKIOAWA* NOT AVBL  
HONOKANAIA* N/A 78 67 69 E9G16 29.83R  
KANELOA* N/A 72 68 88 SW3G14 29.96R  
KEALIALALO* NOT AVBL  
LUA MAKIKA* NOT AVBL  

 
 
HIZ014>015-290600-  
LANAI-  
 
CITY SKY/WX TMP DP RH WIND PRES REMARKS
 
LANAI CITY MOCLDY 71 67 87 W8 29.96R  
LANAI 1* NOT AVBL  

 
 
HIZ017>028-290600-  
MAUI-  
 
CITY SKY/WX TMP DP RH WIND PRES REMARKS
 
KAHULUI PTCLDY 74 66 76 S3 29.89S  
KAPALUA-W MAUI NOT AVBL  
HANA AIRPORT NOT AVBL  
HANA* N/A 75 N/A N/A S3 N/A  
HALEAKALA SUMM N/A 43 41 93 SW5G18 N/A  
MAALAEA BAY* NOT AVBL  
HALEAKALA* NOT AVBL  
KAUPO GAP* NOT AVBL  
KULA 1* N/A 51 51 98 N2 N/A  

 
 
HIZ023>026-290600-  
BIG ISLAND OF HAWAII COAST AND LOWER SLOPES-  
 
CITY SKY/WX TMP DP RH WIND PRES REMARKS
 
KAILUA KONA PTCLDY 79 66 64 S15 29.89R  
HILO CLOUDY 76 66 71 S5 29.90R  
HONOKAA* N/A 72 N/A N/A VRB1 N/A  
KAWAIHAE MWT* N/A 79 N/A N/A W9 N/A  
KAWAIHAE* NOT AVBL  
SOUTH POINT* N/A 72 N/A N/A NE5 N/A  
UPOLU AIRPORT* NOT AVBL  
KAMUELA* CLOUDY 66 63 88 W6 30.02R  
HAKALAU* N/A 52 52 99 E2 N/A  
KALOKO-HONOKO* NOT AVBL  
PALI 2* N/A 63 59 88 CALM N/A  
KEALAKOMO* N/A 77 64 65 S2 N/A  
KAUPULEHU* NOT AVBL  
KAPAPALA* N/A 66 65 96 NW2 N/A  
LOWER KAHUKU* NOT AVBL  
PUHE CS* NOT AVBL  
PUHO CS* NOT AVBL  
PTA KEAMUKU* N/A N/A N/A N/A CALM N/A  
WAIKOLOA* NOT AVBL  

 
 
HIZ027>028-290600-  
BIG ISLAND OF HAWAII INTERIOR AND SUMMMITS-  
 
CITY SKY/WX TMP DP RH WIND PRES REMARKS
 
BRADSHAW FIELD MOCLDY 54 51 87 W8 30.21R  
MK VISITOR CEN N/A 45 41 87 W3 N/A  
MAUNA KEA* N/A 36 -4 18 SW31 N/A WCI 22  
MAUNA LOA* N/A 39 34 81 MISG N/A  
MAUNA LOA 1* NOT AVBL  
PTA KIPUKA* N/A 59 57 94 NW3G10 N/A  
PTA RANGE 17* N/A 66 63 88 NW7G13 N/A  
PTA WEST* N/A 63 59 88 NW9 N/A  
NENE CABIN* NOT AVBL  
AHUMOA* NOT AVBL  
PTA PORTABLE* NOT AVBL  
PUU MALI* N/A 52 52 100 W8G15 N/A  

 
 
HIC003-290600-  
NORTHWEST ISLANDS-  
 
CITY SKY/WX TMP DP RH WIND PRES REMARKS
 
MIDWAY ISLAND MOSUNNY 70 54 56 E6 30.32S  
MIDWAY NOS* NOT AVBL  
FRENCH FRIGATE NOT AVBL  

 
 
PHZ110>124-180-290600-  
BUOY REPORTS  
 
STATION/POSITION TIME TEMP WIND PRES WAVE SWELL
 
AIR SEA DIR/SP/G HT/PER HT/DIR  
(UTC) (F) (DEG/KT/KT) (MB) (FT/S) (FT/D)  
BUOY 51001 0450 69 76 10/ 21/ 25 1016.0F 9/10 5/330  
BUOY 51101 0450 69 76 360/ 21/ 25 1016.4F 10/ 9 7/330  
BUOY 51100 NOT AVBL  
BUOY 51002 0450 77 50/ 8/ 12 1011.9R 6/16 5/160  
BUOY 51003 0450 78 80 20/ 12/ 14 1012.2R 5/16 5/160  
BUOY 51004 0350 78 80/ 8/ 10 1012.1 7/ 8 7/ 90  
BARBERS PT BUOY NOT AVBL  
WAIMEA BAY BUOY 0402 78 N/A 3/11 2/330  
KAILUA BAY BUOY 0434 78 N/A 4/ 8 2  
LANAI BUOY 0445 80 N/A 3/17 3/190  
BARBERS PT 2 NOT AVBL  
PAUWELA MAUI 0439 77 N/A 4/ 8 2/330  
HILO 0442 79 N/A 5/ 8 2/340  
KANEOHE BAY BUOY 0455 78 N/A 4/ 8 2/ 10  
HANALEI KAUAI 0452 78 N/A 10/ 8 2/310  
KAHULUI HARBOR 0442 74 78 240/ 2/ 3 1012.2R  
HONOLULU HARBOR 0448 76 80 50/ 3/ 5 1012.9S  
KILO NALU NOT AVBL  
HILO HARBOR 0448 79 77 150/ 4/ 6 1012.0R  
MOKUOLOE 0436 76 80 10/ 9/ 11 1012.3S  
NAWILIWILI 0448 72 330/ 7/ 9 1013.2R  
WHOTS BUOY NOT AVBL  
BUOY 51028 NOT AVBL  

 
   
.....................KEY.....................................
 
 
SKY/WX - SKY CONDITIONS/PRESENT WEATHER  
TMP - TEMPERATURE IN FAHRENHEIT  
DWPT - DEWPOINT IN FAHRENHEIT  
RH - RELATIVE HUMIDITY IN PERCENT  
WIND - DIRECTION AND SPEED /MPH FOR ISLANDS...KTS FOR BUOYS/  
PRES - MEAN SEA LEVEL PRESSURE IN INCHES OF HG  
VSB - VISIBILITY IN MILES  
HX - HEAT INDEX  
WCI - WIND CHILL INDEX  
VRB - VARIABLE WIND DIRECTION  
N/A - NOT AVAILABLE  
 
 
CLICK HERE TO GO TO PREVIOUS BULLETINS.

The Nexlab HI Page Main Text Page